www.pogodaiklimat.ru

Погода и климат >> Архив погоды >> Индонезия >> Лувук


ПОГОДА в Лувуке

  • Прогноз погоды в Лувуке
  • Монитор погоды в Лувуке

АРХИВ ПОГОДЫ в Лувуке

Время (UTC), дата Ветер
(напр.,м/с)
 
Видим.   Явления Облачность Т
(С)
Тd
(С)
f
(%)
Тe
(С)
Тes
(С)
Комфортность P
(гПа)
Po
(гПа)
Тmin
(С)
Tmax
(С)
R
(мм)
R24
(мм)
S
(см)
15 10.09 З 2 10 км 5/3 600 м
[Cu hum Ac As Ci fib]
+25.7 +15.8 54 +29 +29 душно 1015.4 1013.3
18 10.09 З 2 10 км 5/3 600 м
[Cu hum Ac As Ci fib]
+25.0 +13.9 50 +27 +27 жарко 1014.2 1012.1
21 10.09 З 2 10 км 5/3 600 м
[Cu hum Ac As Ci fib]
+24.4 +14.6 54 +27 +27 жарко 1014.5 1012.4
00 11.09 ЮЗ 3 10 км 5/3 600 м
[Cu med, cong Ac lent Ci fib]
+28.3 +18.1 54 +33 +36 очень
душно
1015.6 1013.5 +23.1
03 11.09 Ю 5 10 км 4/3 600 м
[Cu med, cong Ac As Ci fib]
+29.1 +20.4 59 +36 +43 очень
душно
1014.7 1012.6
06 11.09 ЮЗ 5 10 км 3/1 600 м
[Cu med, cong Ac As Ci fib]
+29.4 +19.7 56 +35 +43 очень
душно
1012.3 1010.2
09 11.09 ЮЗ 4 10 км 3/1 600 м
[Cu med, cong Ac As Ci fib]
+27.3 +19.4 62 +33 +33 очень
душно
1011.4 1009.3
12 11.09 З 3 10 км 5/3 600 м
[Cu med, cong Ac lent Ci fib]
+25.4 +18.0 64 +30 +30 душно 1013.5 1011.4 +29.7
15 11.09 З 2 10 км 6/3 600 м
[Cu hum Ac As Ci fib]
+25.3 +19.0 68 +30 +30 душно 1014.9 1012.8
18 11.09 З 3 10 км 8/4 600 м
[Sc Ac As Ci fib]
+24.3 +18.0 68 +29 +29 душно 1014.4 1012.3
21 11.09 З 3 8000 м 9/5 570 м
[Sc diur, vesp Ac As Ci fib]
+24.8 +19.2 71 +30 +30 душно 1014.3 1012.2
00 12.09 З 2 10 км 9/4 570 м
[Cu hum Ac As Ci fib]
+25.6 +19.5 69 +31 +33 очень
душно
1015.5 1013.4 +23.7
03 12.09 З 3 10 км в посл. час дождь 9/3 570 м
[Cu med, cong Ac As Ci fib]
+26.4 +20.7 71 +33 +40 очень
душно
1015.0 1012.9 0.0
06 12.09 ЮЗ 5 10 км {дождь} 9/4 540 м
[Cu med, cong Ac As Ci fib]
+26.7 +20.5 69 +33 +36 очень
душно
1012.2 1010.1 0.0
09 12.09 З 8 10 км 9/4 540 м
[Cu med, cong Ac As Ci fib]
+26.1 +19.0 65 +31 +31 очень
душно
1011.9 1009.8
12 12.09 З 2 9000 м 9/4 570 м
[Cu med, cong Ac As Ci fib]
+25.7 +18.9 66 +31 +31 очень
душно
1013.8 1011.7 +28.1
15 12.09 Ю 3 8000 м слаб. дождь 9/4 540 м
[Cu med, cong Ac As Ci fib]
+24.5 +20.4 78 +30 +30 очень
душно
1014.5 1012.4 1
18 12.09 ЮЗ 2 8000 м слаб. дождь 9/5 570 м
[Sc diur, vesp Ac As]
+24.8 +19.4 72 +30 +30 душно 1013.4 1011.3 1
21 12.09 З 3 10 км слаб. дождь 9/5 570 м
[Sc diur, vesp Ac und Ci fib]
+23.9 +20.9 83 +30 +30 очень
душно
1013.9 1011.8 1
00 13.09 СВ 3 10 км осадки на расстоянии 9/5 300 м
[Sc diur, vesp Ac As Ci fib]
+24.4 +20.9 81 +31 +32 очень
душно
1016.0 1013.9 +23.8 1
03 13.09 ЮЗ 6 10 км 5/3 600 м
[Cu med, cong Ac As Ci fib]
+29.4 +19.7 56 +35 +40 очень
душно
1014.6 1012.5
06 13.09 Ю 6 10 км 4/3 600 м
[Cu med, cong Ac As Ci fib]
+28.8 +20.6 61 +36 +40 очень
душно
1012.0 1009.9
09 13.09 Ю 5 10 км 4/3 600 м
[Cu med, cong Ac As Ci fib]
+27.2 +20.4 66 +34 +34 очень
душно
1011.8 1009.7
12 13.09 З 3 10 км 4/1 600 м
[Cu med, cong Ac As Ci fib]
+25.3 +19.3 69 +30 +30 душно 1014.2 1012.1 +29.8
15 13.09 З 3 10 км 5/3 600 м
[Cu med, cong Ac As Ci fib]
+26.6 +19.6 65 +32 +32 очень
душно
1014.6 1012.5
18 13.09 З 4 10 км 4/3 600 м
[Cu med, cong Ac As Ci fib]
+26.3 +19.7 67 +32 +32 очень
душно
1013.1 1011.0
21 13.09 З 4 10 км в посл. час дождь 9/3 570 м
[Cu med, cong Ac As Ci fib]
+25.7 +21.2 76 +32 +32 очень
душно
1013.6 1011.5 0.0
00 14.09 ЮЗ 5 10 км {дождь} 9/4 570 м
[Cu med, cong Ac As Ci fib]
+27.1 +21.0 69 +34 +35 очень
душно
1015.4 1013.3 +21.5 0.0
03 14.09 Ю 3 10 км 9/3 600 м
[Cu hum Ac As Ci fib]
+29.3 +21.2 62 +37 +45 очень
душно
1014.5 1012.4
06 14.09 Ю 8 10 км 6/3 600 м
[Cu med, cong Ac As Ci fib]
+28.8 +21.2 64 +36 +38 очень
душно
1012.1 1010.0
09 14.09 ЮЗ 7 10 км 5/3 600 м
[Cu med, cong Ac As Ci fib]
+26.8 +20.8 70 +34 +34 очень
душно
1011.8 1009.7
12 14.09 З 2 10 км 5/3 600 м
[Cu med, cong Ac As Ci fib]
+25.1 +19.6 72 +31 +31 очень
душно
1013.7 1011.6 +26.0
15 14.09 З 2 10 км 5/3 600 м
[Cu med, cong Ac As Ci fib]
+24.9 +18.2 66 +29 +29 душно 1014.4 1012.3
18 14.09 З 2 10 км 5/3 600 м
[Cu med, cong Ac As Ci fib]
+24.7 +17.2 63 +29 +29 душно 1013.4 1011.3
21 14.09 З 4 10 км 4/1 600 м
[Sc diur, vesp Ac trans Ci fib]
+24.3 +18.5 70 +29 +29 душно 1013.2 1011.1
00 15.09 Ю 3 12 км 5/3 600 м
[Cu med, cong Ac lent Ci fib]
+28.0 +20.3 63 +34 +38 очень
душно
1014.5 1012.4 +23.1
03 15.09 ЮЗ 5 10 км 8/4 600 м
[Cu med, cong Ac As Ci fib]
+27.1 +21.1 70 +34 +39 очень
душно
1013.6 1011.5
06 15.09 Ю 5 10 км 6/3 600 м
[Cu med, cong Ac As Ci fib]
+27.9 +21.1 67 +35 +40 очень
душно
1011.2 1009.1
09 15.09 ЮЗ 4 9000 м 6/4 570 м
[Sc diur, vesp Ac As Ci fib]
+26.7 +20.4 68 +33 +33 очень
душно
1010.9 1008.8
12 15.09 З 3 10 км 5/3 600 м
[Cu med, cong Ac lent Ci fib]
+24.5 +20.4 78 +30 +30 очень
душно
1013.1 1011.0 +29.2
15 15.09 З 2 10 км 6/3 600 м
[Cu med, cong Ac cuf Ci fib]
+24.2 +19.8 76 +29 +29 душно 1014.2 1012.1
18 15.09 З 2 10 км 8/4 600 м
[Cu med, cong Ac As Ci fib]
+23.9 +18.8 73 +29 +29 душно 1013.2 1011.1
21 15.09 З 2 9000 м 4/1 600 м
[Cu med, cong Ac As Ci fib]
+23.3 +15.6 62 +28 +28 душно 1012.8 1010.7
00 16.09 Ю 3 10 км 5/3 600 м
[Sc diur, vesp Ac lent Ci fib]
+28.0 +18.8 57 +33 +37 очень
душно
1013.9 1011.8 +22.4
03 16.09 Ю 4 12 км 4/3 600 м
[Cu med, cong Ac lent Ci fib]
+29.0 +21.3 63 +37 +47 очень
душно
1012.9 1010.8
06 16.09 Ю 6 10 км 9/4 570 м
[Cu med, cong Ac As Ci fib]
+27.9 +21.7 69 +36 +38 очень
душно
1010.5 1008.4
09 16.09 ЮЗ 5 10 км 9/4 570 м
[Cu med, cong Ac As Ci fib]
+27.1 +21.1 70 +34 +34 очень
душно
1009.8 1007.7
12 16.09 ЮЗ 3 10 км 5/3 600 м
[Cu med, cong Ac lent Ci fib]
+25.6 +21.3 77 +32 +32 очень
душно
1012.0 1009.9
15 16.09 З 2 9000 м 9/4 570 м
[Cu med, cong Ac As Ci fib]
+25.6 +21.9 80 +33 +33 очень
душно
1013.1 1011.0
18 16.09 З 3 10 км 6/3 600 м
[Cu med, cong Ac As Ci fib]
+24.8 +20.9 79 +31 +31 очень
душно
1011.8 1009.7
21 16.09 ЮЗ 2 10 км 9/4 600 м
[Cu med, cong Ac As Ci fib]
+25.2 +25.2 100 +36 +36 очень
душно
1012.4 1010.3
00 17.09 Ю 2 10 км 6/3 600 м
[Cu med, cong Ac As Ci fib]
+28.4 +22.1 69 +37 +41 очень
душно
1014.0 1011.9 +24.7
03 17.09 Ю 3 10 км 4/3 600 м
[Cu med, cong Ac As Ci fib]
+29.2 +22.8 68 +39 +51 опасность
солнечного
удара
1013.1 1011.0
06 17.09 Ю 5 10 км 5/3 600 м
[Cu med, cong Ac As Ci fib]
+29.7 +22.6 66 +39 +45 очень
душно
1011.1 1009.0
09 17.09 ЮЗ 5 9000 м 8/4 570 м
[Sc diur, vesp Ac As Ci fib]
+27.6 +22.8 75 +37 +37 очень
душно
1011.4 1009.3
12 17.09 ЮЗ 3 10 км 6/3 600 м
[Cu med, cong Ac As Ci fib]
+26.6 +22.5 78 +35 +35 очень
душно
1013.5 1011.4 +30.2

 

Местоположение метеостанции Лувук (Индонезия): широта -0.90 долгота 122.78 высота над уровнем моря 2 м.

В архиве по умолчанию представлена погода в Лувуке за последнюю неделю. Архивные данные за месяц целиком и за предыдущие месяцы, начиная с января 2011 года, Вы можете получить, выбрав интересующий диапазон дат из раскрывающегося списка и нажав кнопку "Ввод!".


*Определитесь, кто Вы:
робот инопланетянин человек

Внимание! Время в таблицах - всемирное. Для получения местного времени необходимо прибавить поправку, которая равна 8 ч.

Смотрите также архив погоды в соседних городах и на ближайших метеорологических станциях:

Погода в Горонтало (Индонезия) (161 км)
Погода в Посо (Индонезия) (234 км)
Погода в Толи-Толи (Индонезия) (307 км)
Погода в Масамбе (Индонезия) (326 км)
Погода в Палу (Индонезия) (340 км)
Погода в Кендари (Индонезия) (358 км)
Погода в Менадо (Индонезия) (359 км)
Погода в Битунге (Индонезия) (372 км)
Погода на Санане (Индонезия) (381 км)
Погода в Колаке (Индонезия) (403 км)

Пояснения к столбцам:

Ветер - указаны скорость ветра в м/с - средняя за 10 мин, порывы в срок и между сроками (в фигурных скобках) и направление, откуда дует ветер: С - северный, СВ - северо-восточный, В - восточный, ЮВ - юго-восточный, Ю - южный, ЮЗ - юго-западный, З - западный, СЗ - северо-западный.
Видимость - горизонтальная дальность видимости в метрах или километрах. При видимости от 1 до 10 км при отсутствии осадков обычно наблюдается дымка, при ухудшении видимости до 1 км и менее - туман. В сухую погоду видимость может ухудшаться дымом, пылью или мглою.
Явления - указаны атмосферные явления, наблюдавшиеся в срок или в последний час перед сроком; фигурными скобками обозначены явления, наблюдавшиеся между сроками (за 1-3 часа до срока); квадратными скобками обозначены град или гололедные отложения с указанием их диаметра в мм.
Облачность - указаны через наклонную черту общая и нижняя облачность в баллах и высота нижней границы облаков в метрах; квадратными скобками обозначены формы облаков: Ci - перистые, Cs - перисто-слоистые, Cc - перисто-кучевые, Ac - высококучевые, As - высокослоистые, Sc - слоисто-кучевые, Ns - слоисто-дождевые, Cu - кучевые, Cb - кучево-дождевые. Подробнее классификацию облаков см. в Атласе облаков (PDF).
T - Температура воздуха - температура, измеренная на высоте 2 м над землей.
Td - Температура точки росы - температура, при понижении до которой содержащийся в воздухе водяной пар достигнет насыщения.
f - Относительная влажность воздуха - влажноcть воздуха, измеренная на высоте 2 м над землей.
Te - Эффективная температура - температура, которую ощущает одетый по сезону человек в тени. Характеристика душности погоды. При расчете учитывается влияние влажности воздуха и скорости ветра на теплоощущения человека.
Tes - Эффективная температура на солнце - температура, которую ощущает человек, с поправкой на солнечный нагрев. Характеристика знойности погоды. Зависит от высоты солнца над горизонтом, облачности и скорости ветра. Ночью, в пасмурную погоду, а также при ветре 12 м/с и более поправка равна нулю.
P - Атмосферное давление - приведенное к уровню моря атмосферное давление.
Po - Атмосферное давление - измеренное на уровне метеостанции атмосферное давление.
Tmin - Минимальная температура - минимум температуры воздуха на высоте 2 м над землей.
Tmax - Максимальная температура - максимум температуры воздуха на высоте 2 м над землей.
R - Количество осадков - Количество выпавших осадков за период времени, мм. При наведении курсора мыши на число - период времени, за который выпало указанное количество осадков.
R24 - Количество осадков - Количество выпавших осадков за 24 часа, мм.
S - Снежный покров - Высота снежного покрова, см. При наведении курсора мыши на число - состояние снежного покрова и степень покрытия местности в баллах.